Weather Roundup
Issued by NWS

Home | Current Version | Previous Version | Text Only | Print | Product List | Glossary On
Versions: 1 2 3 4 5 6 7 8 9 10 11 12 13 14 15 16 17 18 19 20 21 22 23 24 25 26 27 28 29 30 31 32 33 34 35 36 37 38 39 40 41 42 43 44 45 46 47 48 49 50
904
NZUS93 KARX 181759
HRRWXR

CURRENT HOURLY OBSERVATIONS ACROSS
MUCH OF THE UPPER MISSISSIPPI VALLEY
NATIONAL WEATHER SERVICE LA CROSSE WI
100 PM CDT MON SEP 18 2017


...SOUTHEAST MINNESOTA...


CITY           SKY/WX    TMP DP  RH WIND       PRES   REMARKS
ROCHESTER      LGT RAIN  56  54  93 E8        30.06F
ROCHESTER/MAYO CLOUDY    56  53  92 E5        30.06F
WINONA         CLOUDY    61  50  67 SE7       30.07F
AUSTIN         HVY RAIN  55  54  94 SE7       30.03F
ALBERT LEA     CLOUDY    59  57  94 SE8       30.02F
DODGE CENTER   DRIZZLE   57  52  82 SE3       30.05S
PRESTON        CLOUDY    61  49  65 SE9       30.05F
OWATONNA       RAIN      55  54  94 E10       30.02F
FARIBAULT      HVY RAIN  55  54  94 SE3       30.06R
$$

...ELSEWHERE IN MINNESOTA...


CITY           SKY/WX    TMP DP  RH WIND       PRES   REMARKS
MINNEAPOLIS    LGT RAIN  57  54  89 SE12      30.06S
INTNL FALLS    PTSUNNY   62  46  55 S8        30.00F
DULUTH         CLOUDY    58  48  69 S10       30.07F
RED WING       LGT RAIN  57  54  88 CALM      30.05F
REDWOOD FALLS  CLOUDY    58  55  90 SE12      29.97F
MANKATO        HVY RAIN  55  53  93 SE13      30.02F FOG
WORTHINGTON    CLOUDY    57  56  96 SE6       29.97F
FAIRMONT       CLOUDY    58  56  93 SE13      29.99F
$$

...SOUTHWEST WISCONSIN...


CITY           SKY/WX    TMP DP  RH WIND       PRES   REMARKS
LA CROSSE      CLOUDY    68  50  52 VRB3      30.07F
PRAIRIE DU CHI PTSUNNY   71  47  41 SE8       30.06F
BOSCOBEL       MOSUNNY   75  51  43 SE7       30.07F
LONE ROCK      MOSUNNY   71  51  49 E7        30.07F
PLATTEVILLE    SUNNY     72  50  46 S5        30.09S
FORT MC COY    CLOUDY    69  48  46 SE7       30.09S
MAUSTON-NEW LI CLEAR     70  51  50 E7        30.08F
VIROQUA        CLOUDY    65  49  55 SE6       30.10S
WIS DELLS      NOT AVBL
$$

...ELSEWHERE IN WISCONSIN...


CITY           SKY/WX    TMP DP  RH WIND       PRES   REMARKS
MILWAUKEE      PTSUNNY   68  60  75 NE9       30.11F
MADISON        PTSUNNY   74  49  41 E8        30.08F
GREEN BAY      MOSUNNY   70  55  59 E7        30.11F
EAU CLAIRE     NOT AVBL
BLACK RVR FLS  CLOUDY    66  45  46 CALM      30.10R
MEDFORD        CLOUDY    60  51  72 SE6       30.12S
WAUSAU         CLOUDY    64  54  69 SE7       30.11F
WIS RAPIDS     MOSUNNY   68  55  63 SE9       30.12F
MARSHFIELD     CLOUDY    64  52  64 SE10      30.10F
RICE LAKE      RAIN      55  52  90 E6        30.11F
$$

...NORTHEAST IOWA...


CITY           SKY/WX    TMP DP  RH WIND       PRES   REMARKS
WATERLOO       CLOUDY    70  51  51 SE10      30.02F
DUBUQUE        SUNNY     71  49  45 SE10      30.07F
DECORAH        CLOUDY    66  50  55 S7        30.05F
MASON CITY     LGT RAIN  57  55  93 E10       30.01F
CHARLES CITY   CLOUDY    64  52  63 SE9       30.03F
OELWEIN        CLOUDY    72  50  46 S9        30.07F
$$

...ELSEWHERE IN IOWA...


CITY           SKY/WX    TMP DP  RH WIND       PRES   REMARKS
DES MOINES     LGT RAIN  70  63  78 SE8       29.99S
IOWA CITY      SUNNY     78  59  51 SE7       30.04F
FORT DODGE     LGT RAIN  60  58  92 SE8       30.00F
MARSHALLTOWN   CLOUDY    69  58  67 SE10      30.02F
CEDAR RAPIDS   SUNNY     74  54  49 SE8G18    30.02F
$$

...NORTHERN ILLINOIS...


CITY           SKY/WX    TMP DP  RH WIND       PRES   REMARKS
CHICAGO-OHARE  MOSUNNY   76  54  46 E9        30.08F
CHICAGO-MIDWAY MOSUNNY   74  55  51 E12       30.08F
MOLINE         MOSUNNY   79  61  53 E3        30.04F
ROCKFORD       MOSUNNY   77  44  30 SE9       30.08F
PEORIA         PTSUNNY   79  64  60 CALM      30.04F
$$

NOTE: "FAIR" INDICATES FEW OR NO CLOUDS BELOW 12,000 FEET WITH NO
SIGNIFICANT WEATHER AND/OR OBSTRUCTIONS TO VISIBILITY. WIND
SPEEDS ARE IN MILES-PER-HOUR.




USA.gov is the U.S. government's official web portal to all federal, state and local government web resources and services.